Location: Unspecified
(0.0000°N, 0.0000°E)
Time: 22:02:09
(UTC+00:00)

FALCONSAT 3 - Visible Passes

Search period start: 21 April 2019 00:00
Search period end: 01 May 2019 00:00
Orbit: 456 x 460 km, 35.4° (Epoch: 21 April)

Date Brightness Start Highest point End Pass type
(mag) Time Alt. Az. Time Alt. Az. Time Alt. Az.
21 Apr ? 03:48:46 14° ENE 03:48:46 14° ENE 03:49:54 10° ENE visible
21 Apr ? 05:23:02 10° WNW 05:26:31 43° SW 05:29:59 10° SE visible
22 Apr ? 04:49:17 41° W 04:50:07 53° SW 04:53:41 10° SE visible
23 Apr ? 04:15:56 22° SE 04:15:56 22° SE 04:17:20 10° SE visible
